Regional Weather Roundup
Issued by NWS

Home | Current Version | Previous Version | Text Only | Print | Product List | Glossary On
Versions: 1 2 3 4 5 6 7 8 9 10 11 12 13 14 15 16 17 18 19 20 21 22 23 24 25 26 27 28 29 30 31 32 33 34 35 36 37 38 39 40 41 42 43 44 45 46 47 48 49 50
000
ASUS43 KLOT 150510
RWRIL

ILLINOIS REGIONAL WEATHER ROUNDUP
NATIONAL WEATHER SERVICE CHICAGO/ROMEOVILLE IL
1200 AM CDT MON SEP 15 2014

NOTE: "FAIR" INDICATES FEW OR NO CLOUDS BELOW 12,000 FEET WITH NO
SIGNIFICANT WEATHER AND/OR OBSTRUCTIONS TO VISIBILITY.

* THESE STATIONS ARE NOT UNDER NWS QUALITY CONTROL. THEY ALSO MAY NOT
  REPORT WEATHER SUCH AS PRECIPITATION OR FOG.

ILZ001-002-007-009-015-016-024-150600-
NORTHWEST ILLINOIS

CITY           SKY/WX    TMP DP  RH WIND       PRES   REMARKS
MOLINE         MOCLDY    52  49  89 CALM      30.17S
STERLING*      PTCLDY    48  45  87 SE3       30.17F
SAVANNA*       PTCLDY    50  47  92 CALM      30.17S
$$

ILZ003-004-008-010-011-017-018-150600-
NORTH CENTRAL ILLINOIS

CITY           SKY/WX    TMP DP  RH WIND       PRES   REMARKS
ROCKFORD       MOCLDY    51  46  83 CALM      30.20S
FREEPORT*      PTCLDY    50  47  88 SW5       30.19S
ROCHELLE*      CLEAR     45  43  93 CALM      30.18S
DE KALB*       PTCLDY    48  43  81 SW3       30.19S
PERU*          PTCLDY    52  46  79 CALM      30.19R
$$

ILZ005-006-012>014-019>023-150600-
NORTHEAST ILLINOIS

CITY           SKY/WX    TMP DP  RH WIND       PRES   REMARKS
CHICAGO-OHARE  PTCLDY    53  46  77 CALM      30.18S
CHICAGO-MIDWAY PTCLDY    57  47  69 CALM      30.18S
AURORA         PTCLDY    47  43  86 CALM      30.18F
LANSING*       CLEAR     49  47  92 CALM      30.19S
JOLIET*        CLEAR     47  46  95 CALM      30.19S
WAUKEGAN       PTCLDY    50  46  86 SW3       30.16F
DUPAGE AIRPORT PTCLDY    49  46  90 CALM      30.17F
KANKAKEE*      CLEAR     47  46  97 CALM      30.19S
WHEELING       PTCLDY    53  47  79 CALM      30.19S
MORRIS*        CLEAR     51  50  97 CALM      30.18S
ROMEOVILLE*    CLEAR     49  47  94 SE3       30.18S
NORTHERLY ISL    N/A     59  45  59 SW2         N/A
$$

LMZ740>746-150600-
SOUTHERN LAKE MICHIGAN

STATION/POSITION SKY/WX   TEMP    WIND        PRES    VSBY  WAVE
                          AIR SEA DIR/SP/G                  HT/PER
                          (F)     (DEG/KT/KT) (MB)    (MI)  (FT/S)
SOUTHERN BUOY              64 64  230/ 14/ 16 1021.5F         1/ 3
WAUKEGAN HARBOR            56     250/  7/  8   N/A
HARRISON CRIB              60     200/  5/  6   N/A
BURNHAM HARBOR             58     200/  3/  4   N/A
CALUMET HARBOR             56     220/  1/  3 1021.0R
MICHIGAN CITY              57     140/  6/  8   N/A
MICHIGAN CITY 6N           59 64  180/  6/  8   N/A           1
ST. JOSEPH                 61 67  150/  8/ 10   N/A           1/ 2
$$

ILZ025>027-034>036-040-047-049-050-058-095>099-150600-
WEST-CENTRAL ILLINOIS

CITY           SKY/WX    TMP DP  RH WIND       PRES   REMARKS
QUINCY         CLOUDY    58  50  75 SE5       30.16S
GALESBURG*     MOCLDY    52  48  86 CALM      30.17F
MACOMB*        MOCLDY    49  48  95 CALM      30.19S
JACKSONVILLE*  PTCLDY    52  49  90 SE3       30.18S
PITTSFIELD*    MOCLDY    55  49  82 CALM      30.17S
$$

ILZ028>032-037-038-041>044-048-051>054-059>061-150600-
CENTRAL ILLINOIS

CITY           SKY/WX    TMP DP  RH WIND       PRES   REMARKS
PONTIAC        CLEAR     48  48 100 CALM      30.19R
DECATUR        CLEAR     54  46  74 SW5       30.20R
PEORIA         PTCLDY    54  49  83 CALM      30.18S
LACON*         PTCLDY    49  47  91 CALM      30.17S
LINCOLN*       CLEAR     51  46  84 CALM      30.18S
SPRINGFIELD    CLEAR     50  46  86 CALM      30.19S
TAYLORVILLE    CLEAR     52  46  82 CALM      30.20R
$$

ILZ033-039-045-046-055>057-062-063-150600-
EAST-CENTRAL ILLINOIS

CITY           SKY/WX    TMP DP  RH WIND       PRES   REMARKS
CHAMPAIGN      CLEAR     49  46  90 S3        30.20S
DANVILLE*      CLEAR     47  46  95 CALM      30.17S
RANTOUL*       CLEAR     52  45  75 CALM      30.20R
MATTOON        CLEAR     54  46  74 S5        30.19R
PARIS*         CLEAR     48  47  97 SE3       30.20S
$$

ILZ079-100>102-150600-
SOUTHWEST ILLINOIS

CITY           SKY/WX    TMP DP  RH WIND       PRES   REMARKS
ALTON          CLEAR     50  48  93 E5        30.18F
CAHOKIA*       CLEAR     56  49  77 S6        30.18S
SPARTA*        CLEAR     52  49  89 CALM      30.20S
$$

ILZ064>066-069>071-074>076-080>082-084>086-088>090-092>094-150600-
SOUTH-CENTRAL ILLINOIS

CITY           SKY/WX    TMP DP  RH WIND       PRES   REMARKS
CARBONDALE     CLEAR     51  49  92 CALM      30.20S
CAIRO*         CLEAR     54  52  90 CALM      30.20S
EFFINGHAM*     CLEAR     49  47  92 CALM      30.20R
MARION         CLEAR     54  52  94 CALM      30.20S
MT. VERNON     CLEAR     48  45  87 CALM      30.20F
CENTRALIA*     CLEAR     49  47  93 CALM      30.19F
SALEM*         CLEAR     52  51  97 CALM      30.20S
METROPOLIS*    CLEAR     52  52 100 CALM      30.19S
$$

ILZ067-068-072-073-078-083-087-091-150600-
SOUTHEAST ILLINOIS

CITY           SKY/WX    TMP DP  RH WIND       PRES   REMARKS
LAWRENCEVILLE  CLEAR     50  48  93 CALM      30.21S
FLORA*         CLEAR     49  49  98 CALM      30.21R
FAIRFIELD*     CLEAR    N/A N/A N/A CALM      30.20S
HARRISBURG*    CLEAR     51  51 100 CALM      30.21F
ROBINSON*      CLEAR     48  48  99 CALM      30.21F
CARMI*         CLEAR     51  51  99 CALM      30.20S
$$

ABBREVIATIONS USED IN REMARKS
   TC - TEMPERATURE IN CELSIUS
  WCI - WIND CHILL INDEX
   HX - HEAT INDEX
  VSB - VISIBILITY
$$



USA.gov is the U.S. government's official web portal to all federal, state and local government web resources and services.